Showing default

BEIDOU 3 G3, 45807

Orbit data source: Space-Track

BEIDOU 3 G3, 45807 is a payload satellite owned by CNSA (CN) in GEO that was launched on Tue, 23 Jun 2020 UTC via a CHANG ZHENG 3B launch vehicle from the Xichang Space Center, China (XSC). Payload-class satellites include a variety of spacecraft equipped with specific instruments for various scientific and technological missions. These include communications satellites like Starlink; space stations such as the ISS; scientific satellites like the Hubble; Earth observation satellites from companies like Planet Labs, Umbra, and HawkEye 360; GPS; miniature CubeSats for education and research; and military/defense satellites.

Not visible in the next 10 days
Identifier
45807, 2020-040A
Orbit
GEO
Last TLE update
11 hours ago
Origin
Manufacturer
CAST
Mission
Operational Defense Navigation
Bus & Motor
DFH-3B, FY-25
Mass
~3,060 kg wet, 1,700 kg dry
Launch date (UTC)
2020-06-23 (5 years ago)
Launch vehicle
CHANG ZHENG 3B
Launch site
Xichang Space Center, China (XSC)
Object type
Payload
Rocket body
Debris
Shape & HBR
Box + 2 Pan, Unknown HBR
Radar Cross Section
13.998 m², Large (>1 m²)

Expand to show TLE details & history

TLE from 11 hours ago
0 BEIDOU 3 G3
1 45807U 20040A   25128.90406023 -.00000347  00000-0  00000-0 0  9997
2 45807   1.4712  63.0972 0002481 328.9963 270.8230  1.00267331 18018
Epoch: 2025-05-08T21:41Z
Definitive object data (Epoch: 2025-05-08T21:41:50.803Z)
Latitude
-1.25941°
Longitude
110.44895°
Altitude
35,787.38 km
Speed
3.075 km/s
True Right ascension
20h 11m 30s
True Declination
-1° 15' 29"
Sunlit
Object was in daylight at TLE epoch
Visualization TLE readout
Latitude
0.90019°
Longitude
-91.44378°
Altitude
35,783.48 km
Speed
3.075 km/s
Apparent Right ascension
06h 29m 47s
Apparent Declination
-4° 13' 04"
Sunlit
Object is in daylight
Visualization observer readout
Local Sidereal Time
16:21:29
Azimuth
312.533° NW
Elevation
-44.055°
Doppler factor
1
Orbital elements
Apogee altitude
35,799.375 km
Perigee altitude
35,778.451 km
Semi-major axis
42,167.05 km
Eccentricity
0.0002481
Inclination
1.4712°
RAAN
63.0972°
Arg. of periapsis
328.9963°
True anomaly
270.79457°
Mean anomaly
270.823°
Eccentric anomaly
270.80879°
Mean motion
0.25066 °/min
BSTAR
Unknown
Orbital period
1436.21 mins
Loading historical data...
45807 neighbors
Loading maneuver chart data...
Loading SW <> Apogee altitude chart data...
Loading historical data...
Loading historical data...
Loading historical data...
Loading historical data...
Loading historical data...
Loading historical data...
Loading historical data...
Other satellites on launch #40 in the year 2020 (2020-06-23 UTC)

BEIDOU 3 G3 Visibility forecast

Observer location: undefined°, undefined°

BEIDOU 3 G3 is not visible in the next 10 days
Span
Click to sort rows by Start time (UTC) header in descending order
Start Az.
Max El. time (UTC)
Max El. Az.
Max El.
End time (UTC)
End Az.
|